[[{"header":{"parameterUnit":"m.s-1","parameterCategory":1,"la1":30.2991,"la2":30.254,"lo1":-89.0895,"lo2":-89.0444,"dy":0.0017,"dx":0.0017,"nx":28,"ny":28,"refTime":"2023-09-22T03:00:00:Z","depth":0,"parameterNumber":2,"parameterNumberName":"U-component_of_WINDS"},"data":[0,0,0,0,0,0,0,0,0,0,0,0,0,0,0,0,0,0,0,0,0,0,0,0,0,0,0,0,0,0,0,0,0,0,0,0,0,0,0,0,0,0,0,0,0,0,0,0,0,0,0,0,0,0,0,0,0,0,-1.5347,-1.5347,0,-1.5302,-1.5302,-1.5301,-1.5232,-1.5231,-1.523,-1.5228,-1.5183,-1.5183,-1.5183,0,0,0,0,0,0,0,0,0,0,0,0,0,-1.5375,-1.5375,-1.5347,-1.5347,-1.5346,-1.5302,-1.5302,-1.5301,-1.5232,-1.5231,-1.5229,-1.5228,-1.5183,-1.5183,-1.5183,0,0,0,0,0,0,0,0,0,0,0,0,0,-1.535,-1.5375,-1.5347,-1.5307,-1.5302,-1.5302,-1.5302,-1.5301,-1.5233,-1.5231,-1.5229,-1.5227,-1.5183,-1.5183,-1.5183,-1.5219,0,0,-1.5183,-1.5183,0,0,0,0,0,0,0,0,-1.5352,-1.5349,-1.5313,-1.5309,-1.5305,-1.5271,-1.5295,-1.5274,-1.5233,-1.5259,-1.5228,-1.5226,-1.5214,-1.5211,-1.5207,-1.5217,-1.5215,-1.5183,-1.5183,-1.5182,-1.5182,0,0,0,0,0,0,0,-1.5354,-1.5351,-1.5329,-1.5313,-1.5308,-1.5291,-1.5285,-1.5291,-1.5247,-1.5257,-1.5252,-1.5247,-1.5211,-1.5207,-1.5205,-1.5215,-1.5183,-1.5183,-1.5182,-1.5182,-1.5256,-1.5257,0,0,0,0,0,0,-1.5361,-1.5353,-1.5331,-1.5328,-1.5324,-1.5292,-1.5286,-1.5284,-1.5247,-1.524,-1.5249,-1.5244,-1.5208,-1.5205,-1.5203,-1.5246,-1.5182,-1.5182,-1.5182,-1.5254,-1.5256,-1.5258,0,0,0,0,0,0,-1.5362,-1.536,-1.5333,-1.5339,-1.5334,-1.5293,-1.5292,-1.5284,-1.5279,-1.5241,-1.5233,-1.5252,-1.5206,-1.5203,-1.5216,-1.5243,-1.5182,-1.5182,-1.5251,-1.5254,-1.5257,-1.533,0,0,0,0,0,0,-1.5363,-1.5361,-1.5374,-1.534,-1.5334,-1.5346,-1.5293,-1.5284,-1.5279,-1.5273,-1.5242,-1.5236,-1.5205,-1.5217,-1.5216,-1.5242,-1.5182,-1.5249,-1.5253,-1.5256,-1.5325,-1.5335,-1.5343,0,0,0,0,0,-1.5364,-1.5395,-1.5375,-1.5372,-1.535,-1.5348,-1.5345,-1.5308,-1.5282,-1.5295,-1.5271,-1.5237,-1.524,-1.5219,-1.5218,-1.5243,-1.5247,-1.5251,-1.5256,-1.5321,-1.5333,-1.5343,0,0,0,0,0,0,-1.5433,-1.539,-1.5367,-1.5388,-1.5372,-1.5336,-1.5352,-1.5322,-1.5314,-1.5308,-1.5264,-1.5257,-1.5277,-1.5261,-1.5238,-1.5278,-1.5238,-1.5243,-1.5288,-1.5299,-1.5308,-1.5313,-1.5182,0,0,0,0,0,-1.5451,-1.5453,-1.5415,-1.5437,-1.5431,-1.5393,-1.5391,-1.5364,-1.5346,-1.534,-1.5316,-1.53,-1.5298,-1.5297,-1.5293,-1.5322,-1.5315,-1.5339,-1.5348,-1.5356,-1.5361,-1.5378,-1.5388,-1.5273,-1.5273,-1.5273,0,0,-1.5487,-1.5464,-1.5468,-1.5451,-1.5436,-1.544,-1.5388,-1.5394,-1.5397,-1.534,-1.5352,-1.5334,-1.5314,-1.5336,-1.5344,-1.5323,-1.5391,-1.5362,-1.5368,-1.5369,-1.5383,-1.5394,-1.5404,-1.5276,-1.5275,-1.5275,0,0,-1.5557,-1.5538,-1.5556,-1.5542,-1.552,-1.5495,-1.5499,-1.5468,-1.5454,-1.5465,-1.5424,-1.5426,-1.5423,-1.5411,-1.5404,-1.547,-1.544,-1.547,-1.5519,-1.5536,-1.5545,-1.5553,-1.5579,-1.5588,-1.5475,-1.5475,-1.5475,0,-1.5605,-1.5609,-1.5569,-1.5578,-1.5572,-1.5522,-1.554,-1.5528,-1.5506,-1.5504,-1.5481,-1.5476,-1.5459,-1.5478,-1.5495,-1.549,-1.5495,-1.5474,-1.5547,-1.5554,-1.5561,-1.5586,-1.5595,-1.5479,-1.5478,-1.5478,-1.5478,0,-1.5671,-1.5674,-1.5691,-1.5672,-1.5668,-1.5681,-1.5644,-1.5645,-1.5619,-1.5597,-1.561,-1.5587,-1.5578,-1.558,-1.5554,-1.5597,-1.5585,-1.5555,-1.5514,-1.5577,-1.5599,-1.5608,-1.5485,-1.5483,-1.5482,-1.5481,0,0,-1.5782,-1.5741,-1.5748,-1.574,-1.5712,-1.5714,-1.5726,-1.5718,-1.572,-1.5707,-1.5717,-1.5716,-1.5688,-1.5681,-1.5653,-1.5668,-1.5725,-1.5636,-1.5635,-1.5655,-1.5773,-1.5797,-1.5809,-1.5704,-1.5705,-1.5706,-1.5775,0,-1.5848,-1.5866,-1.5831,-1.5858,-1.5862,-1.5814,-1.5825,-1.581,-1.5789,-1.579,-1.5767,-1.5768,-1.5731,-1.5726,-1.5738,-1.5715,-1.5748,-1.571,-1.5714,-1.5715,-1.5723,-1.582,-1.5845,-1.5911,-1.5783,-1.5785,-1.5786,0,-1.5926,-1.5918,-1.5945,-1.5918,-1.5918,-1.5928,-1.5919,-1.5919,-1.5902,-1.5886,-1.5879,-1.5847,-1.5858,-1.5818,-1.5833,-1.5808,-1.5808,-1.5797,-1.5799,-1.5799,-1.5756,-1.5825,-1.5931,-1.5942,-1.5799,-1.5798,-1.5797,0,-1.6008,-1.6003,-1.6019,-1.6013,-1.5981,-1.5989,-1.5976,-1.5957,-1.5955,-1.5946,-1.5945,-1.5938,-1.5934,-1.593,-1.5898,-1.5871,-1.5918,-1.5875,-1.5907,-1.5908,-1.5921,-1.5921,-1.6031,-1.5917,-1.5917,-1.5917,-1.5917,0,-1.6086,-1.6105,-1.6056,-1.6066,-1.6087,-1.6047,-1.6069,-1.6051,-1.6034,-1.6041,-1.5999,-1.6006,-1.5962,-1.5965,-1.594,-1.5958,-1.5956,-1.5945,-1.5939,-1.595,-1.5952,-1.5951,-1.5946,-1.592,-1.5919,-1.5918,-1.5918,0,-1.6181,-1.6149,-1.6164,-1.6132,-1.6125,-1.6142,-1.6115,-1.6124,-1.6101,-1.6111,-1.6111,-1.6075,-1.6077,-1.6043,-1.6038,-1.6021,-1.6052,-1.6036,-1.6058,-1.6054,-1.6089,-1.6087,-1.6204,-1.6218,-1.6094,-1.6095,-1.6096,0,-1.6234,-1.6248,-1.6218,-1.622,-1.6209,-1.6212,-1.621,-1.6171,-1.617,-1.6152,-1.6164,-1.6162,-1.6159,-1.6164,-1.6138,-1.6135,-1.612,-1.6161,-1.6119,-1.6131,-1.6123,-1.6124,-1.6126,-1.617,-1.6172,-1.6173,-1.6174,0,-1.6332,-1.6316,-1.6314,-1.6308,-1.6306,-1.6299,-1.6289,-1.6293,-1.625,-1.6252,-1.6253,-1.6251,-1.6246,-1.6246,-1.6238,-1.6225,-1.6194,-1.6187,-1.6195,-1.6208,-1.6221,-1.6217,-1.6085,-1.6185,-1.6184,-1.6183,-1.6182,-1.6182,-1.641,-1.6421,-1.6402,-1.6402,-1.639,-1.6383,-1.639,-1.6368,-1.6369,-1.6362,-1.6339,-1.6345,-1.6328,-1.6314,-1.6304,-1.6309,-1.6289,-1.63,-1.6303,-1.6306,-1.6314,-1.6219,-1.6307,-1.6307,-1.6306,-1.6306,-1.6306,0,-1.6508,-1.6493,-1.6494,-1.6482,-1.6482,-1.6451,-1.6439,-1.6442,-1.6448,-1.6435,-1.6433,-1.6435,-1.6435,-1.641,-1.6406,-1.6415,-1.6401,-1.6416,-1.6416,-1.6414,-1.6331,-1.6326,-1.6428,-1.6428,-1.6428,-1.6428,-1.6428,-1.6428,-1.6559,-1.6577,-1.6558,-1.6571,-1.6556,-1.6562,-1.6558,-1.6551,-1.654,-1.6545,-1.6545,-1.6528,-1.6511,-1.6506,-1.6505,-1.6498,-1.65,-1.652,-1.6508,-1.6431,-1.642,-1.6409,-1.6403,-1.652,-1.652,-1.6591,-1.6592,-1.6592]},{"header":{"parameterUnit":"m.s-1","parameterCategory":1,"la1":30.2991,"la2":30.254,"lo1":-89.0895,"lo2":-89.0444,"dy":0.0017,"dx":0.0017,"nx":28,"ny":28,"refTime":"2023-09-22T03:00:00:Z","depth":0,"parameterNumber":3,"parameterNumberName":"V-component_of_WINDS"},"data":[0,0,0,0,0,0,0,0,0,0,0,0,0,0,0,0,0,0,0,0,0,0,0,0,0,0,0,0,0,0,0,0,0,0,0,0,0,0,0,0,0,0,0,0,0,0,0,0,0,0,0,0,0,0,0,0,0,0,1.9641,1.964,0,1.9556,1.9555,1.9554,1.9499,1.9499,1.9499,1.9499,1.9406,1.9404,1.9402,0,0,0,0,0,0,0,0,0,0,0,0,0,1.9752,1.9751,1.9641,1.964,1.9639,1.9556,1.9555,1.9554,1.95,1.9499,1.9499,1.9498,1.9407,1.9404,1.9402,0,0,0,0,0,0,0,0,0,0,0,0,0,1.9689,1.975,1.9641,1.9602,1.9598,1.9557,1.9555,1.9554,1.95,1.9499,1.9499,1.9498,1.9408,1.9405,1.9401,1.9391,0,0,1.9392,1.939,0,0,0,0,0,0,0,0,1.9693,1.9685,1.9609,1.9605,1.96,1.9538,1.956,1.9499,1.95,1.9537,1.9499,1.9498,1.945,1.9443,1.9428,1.9387,1.9383,1.9391,1.9389,1.9388,1.9387,0,0,0,0,0,0,0,1.9697,1.9689,1.9607,1.9608,1.9602,1.9587,1.9578,1.9549,1.9497,1.9533,1.9529,1.952,1.9447,1.9432,1.9426,1.9381,1.9391,1.9388,1.9386,1.9385,1.9326,1.9327,0,0,0,0,0,0,1.9709,1.9693,1.961,1.9605,1.9646,1.9586,1.9575,1.9558,1.9497,1.9488,1.9521,1.9518,1.9437,1.943,1.9422,1.9405,1.9388,1.9385,1.9383,1.9326,1.9326,1.9327,0,0,0,0,0,0,1.9711,1.9702,1.9614,1.9648,1.9635,1.9584,1.9566,1.9557,1.9541,1.9488,1.9478,1.9514,1.9437,1.9427,1.9399,1.9401,1.9383,1.9381,1.9325,1.9326,1.9327,1.9372,0,0,0,0,0,0,1.9715,1.9703,1.97,1.9648,1.9634,1.9594,1.9566,1.9556,1.9536,1.9532,1.9479,1.947,1.9436,1.9405,1.9396,1.9396,1.9378,1.9325,1.9326,1.9326,1.937,1.9374,1.9377,0,0,0,0,0,1.9719,1.9715,1.97,1.969,1.9629,1.9594,1.9585,1.9548,1.9537,1.9532,1.9498,1.9471,1.9403,1.9402,1.9392,1.9392,1.9325,1.9326,1.9326,1.9368,1.9373,1.9377,0,0,0,0,0,0,1.9766,1.9707,1.969,1.9669,1.9637,1.9585,1.9577,1.9554,1.9523,1.952,1.9473,1.9462,1.9439,1.9413,1.9413,1.9378,1.9361,1.936,1.9396,1.94,1.9404,1.9409,1.9375,0,0,0,0,0,1.9774,1.9753,1.9702,1.9688,1.9673,1.9629,1.9612,1.9586,1.955,1.9536,1.95,1.9464,1.9435,1.9416,1.9386,1.9367,1.9353,1.9361,1.9365,1.9368,1.9367,1.9354,1.9356,1.933,1.933,1.933,0,0,1.979,1.9756,1.9744,1.9697,1.9669,1.9646,1.9617,1.9594,1.9576,1.9532,1.9504,1.9476,1.9434,1.941,1.9398,1.9387,1.9372,1.9369,1.9372,1.9369,1.9355,1.9357,1.936,1.933,1.933,1.933,0,0,1.9808,1.978,1.9766,1.9739,1.9698,1.9668,1.9665,1.9616,1.9596,1.9568,1.9534,1.9512,1.9462,1.9433,1.9412,1.942,1.9394,1.9412,1.943,1.9417,1.9419,1.9421,1.9422,1.9424,1.9411,1.9411,1.9411,0,1.9832,1.9798,1.9761,1.974,1.9719,1.968,1.9664,1.964,1.959,1.9576,1.9566,1.9504,1.9472,1.9441,1.9443,1.9428,1.9421,1.9416,1.9423,1.9424,1.9425,1.9425,1.9426,1.9414,1.9413,1.9413,1.9413,0,1.9829,1.9806,1.9799,1.9754,1.9733,1.9715,1.9674,1.9657,1.9633,1.9604,1.9575,1.9537,1.9498,1.9489,1.9465,1.9454,1.9449,1.9432,1.9413,1.943,1.943,1.943,1.9417,1.9416,1.9415,1.9415,0,0,1.9872,1.9808,1.9806,1.9785,1.9737,1.9717,1.9697,1.9661,1.9647,1.9615,1.9595,1.9555,1.9539,1.9515,1.9487,1.9477,1.9484,1.946,1.9458,1.9464,1.9468,1.948,1.9481,1.9468,1.9468,1.9468,1.9471,0,1.9881,1.9844,1.981,1.9784,1.9761,1.9725,1.9707,1.9675,1.9648,1.9624,1.9593,1.9565,1.9546,1.9531,1.952,1.9486,1.9484,1.9485,1.9447,1.9446,1.9457,1.9481,1.9494,1.9499,1.9471,1.9471,1.9471,0,1.9885,1.9856,1.9829,1.9784,1.9773,1.9758,1.9722,1.97,1.9663,1.9643,1.9618,1.959,1.9565,1.9551,1.9515,1.9517,1.95,1.9481,1.948,1.9473,1.9458,1.9473,1.95,1.95,1.947,1.9471,1.9471,0,1.9917,1.9871,1.9849,1.9832,1.9779,1.9769,1.9746,1.9709,1.9689,1.9658,1.9645,1.961,1.9591,1.9565,1.9527,1.9521,1.9495,1.9478,1.9477,1.9478,1.9471,1.9472,1.9494,1.9464,1.9464,1.9464,1.9464,0,1.9929,1.9913,1.9862,1.9848,1.9829,1.9791,1.9772,1.9746,1.9714,1.9693,1.9659,1.964,1.9593,1.9568,1.9539,1.9513,1.9505,1.9488,1.948,1.9489,1.9492,1.9476,1.9474,1.9464,1.9464,1.9464,1.9464,0,1.996,1.9926,1.9898,1.9851,1.9839,1.9827,1.9786,1.977,1.9742,1.9716,1.9708,1.9663,1.9632,1.9593,1.9549,1.9529,1.9506,1.9495,1.9519,1.9514,1.9515,1.9514,1.9525,1.9524,1.9497,1.9498,1.9498,0,1.9969,1.9957,1.9909,1.9893,1.9872,1.9847,1.9828,1.979,1.977,1.9728,1.9717,1.9684,1.9655,1.9607,1.9569,1.9535,1.9522,1.9528,1.9516,1.9526,1.952,1.952,1.9518,1.953,1.9531,1.9531,1.9531,0,1.9989,1.9972,1.9946,1.9914,1.9892,1.9865,1.9836,1.9825,1.978,1.976,1.9729,1.9707,1.9663,1.963,1.9591,1.9566,1.9541,1.9536,1.9533,1.9542,1.9556,1.9547,1.9525,1.9535,1.9535,1.9534,1.9534,1.9534,2.0007,1.9994,1.9959,1.9931,1.9905,1.9879,1.9862,1.9833,1.9807,1.9769,1.9748,1.9717,1.968,1.9626,1.9602,1.9576,1.9567,1.9564,1.9562,1.9562,1.9564,1.9563,1.9569,1.9569,1.9569,1.9569,1.9568,0,2.0023,1.9999,1.9974,1.9935,1.9913,1.9894,1.9861,1.9843,1.9817,1.9786,1.9759,1.9722,1.969,1.9651,1.9616,1.9603,1.959,1.9595,1.9594,1.9589,1.9575,1.958,1.9606,1.9606,1.9606,1.9606,1.9606,1.9606,2.0029,2.0005,1.9985,1.9948,1.9924,1.9894,1.9877,1.9852,1.9827,1.9789,1.9763,1.9738,1.9703,1.9666,1.9635,1.9624,1.9612,1.962,1.9605,1.9593,1.959,1.9586,1.9591,1.9618,1.9618,1.962,1.962,1.962]}]]